Flag Weather past 2 weeks in Bocholt, North Rhine-Westphalia, Germany

Now
45 °F

Passing clouds.


Feels Like: 39 °F
Forecast: 33 / 40 °F
Wind: 12 mph from Southeast

Location: Niederrhein

Current Time: Nov 28, 2014 at 1:52:31 AM

Latest Report: Nov 27, 2014 at 11:50 PM


Visibility: 6 mi

Pressure: 29.74 "Hg

Humidity: 93%

Dew point: 43 °F

Location of BocholtLocation

Historic Weather in Bocholt — Graph

°F

Bocholt temperature yesterday

Maximum temperature yesterday: 46 °F (at 11:20 AM)
Minimum temperature yesterday: 43 °F (at 4:50 AM)
Average temperature yesterday: 45 °F

Past Weeks' High & Low Weather Summary

 TemperatureHumidityPressure
High57 °F (Nov 13, 1:20 PM)100% (Nov 12, 11:20 PM)30.33 "Hg (Nov 12, 11:20 PM)
Low30 °F (Nov 25, 5:20 AM)62% (Nov 24, 1:50 PM)29.50 "Hg (Nov 16, 2:50 PM)
Average47 °F93%29.95 "Hg
* Reported Nov 12 11:20 PM — Nov 27 11:50 PM, Bocholt, Weather by CustomWeather, © 2014

Note: Actual official high and low records may vary slightly from our data, if they occured in-between our weather recording intervals... More about our weather records

Advertising

Bocholt weather history for previous 24 hours

 ConditionsComfort  
Time TempWeatherWind HumidityBarometerVisibility
11:50 PM
Nov 27
45 °FPassing clouds.12 mph93%29.74 "Hg6 mi
11:20 PM45 °FPassing clouds.9 mph100%29.74 "Hg6 mi
10:50 PM43 °FPassing clouds.10 mph100%29.74 "Hg4 mi
10:20 PM43 °FLight rain. Fog.10 mph100%29.74 "Hg3 mi
9:50 PM45 °FPassing clouds.12 mph100%29.74 "Hg6 mi
9:20 PM43 °FPassing clouds.12 mph100%29.74 "Hg6 mi
8:50 PM45 °FPassing clouds.10 mph100%29.74 "Hg6 mi
8:20 PM45 °FPassing clouds.8 mph100%29.74 "Hg5 mi
7:50 PM45 °FLight rain. Passing clouds.8 mph100%29.74 "Hg6 mi
7:20 PM45 °FLight rain. Passing clouds.9 mph100%29.74 "Hg5 mi
6:50 PM45 °FLight rain. Passing clouds.9 mph100%29.74 "Hg4 mi
6:20 PM45 °FLight rain. Passing clouds.10 mph100%29.74 "Hg4 mi
5:50 PM45 °FLight rain. Passing clouds.10 mph100%29.74 "Hg4 mi
5:20 PM45 °FLight rain. Partly sunny.10 mph100%29.74 "Hg4 mi
4:50 PM46 °FLight rain. Partly sunny.8 mph100%29.74 "Hg5 mi
4:20 PM46 °FLight rain. Partly sunny.7 mph93%29.74 "Hg5 mi
3:50 PM46 °FLight rain. Scattered clouds.7 mph93%29.74 "HgN/A
3:20 PM46 °FLight rain. Partly sunny.8 mph93%29.74 "Hg6 mi
2:50 PM46 °FScattered clouds.8 mph93%29.74 "HgN/A
2:20 PM46 °FScattered clouds.6 mph93%29.74 "HgN/A
1:50 PM46 °FSprinkles. Scattered clouds.7 mph93%29.74 "Hg6 mi
1:20 PM46 °FSprinkles. Scattered clouds.7 mph87%29.74 "Hg5 mi
12:50 PM46 °FScattered clouds.9 mph87%29.77 "HgN/A
12:20 PM46 °FScattered clouds.9 mph87%29.77 "HgN/A
11:50 AM46 °FPassing clouds.8 mph87%29.77 "HgN/A
11:20 AM46 °FScattered clouds.9 mph87%29.77 "HgN/A
10:50 AM45 °FPassing clouds.10 mph87%29.77 "HgN/A
10:20 AM45 °FPassing clouds.12 mph87%29.77 "HgN/A
9:50 AM45 °FScattered clouds.9 mph87%29.77 "HgN/A
9:20 AM45 °FPartly sunny.9 mph87%29.80 "HgN/A
8:50 AM45 °FPassing clouds.8 mph87%29.80 "HgN/A
8:20 AM45 °FPassing clouds.9 mph87%29.80 "HgN/A
7:50 AM45 °FPassing clouds.8 mph87%29.80 "HgN/A
7:20 AM43 °FPassing clouds.8 mph93%29.80 "HgN/A
6:50 AM43 °FPassing clouds.8 mph93%29.80 "HgN/A
6:20 AM45 °FPassing clouds.8 mph87%29.80 "HgN/A
5:50 AM43 °FPassing clouds.9 mph93%29.80 "HgN/A
5:20 AM43 °FPassing clouds.10 mph100%29.80 "HgN/A
4:50 AM43 °FPassing clouds.7 mph100%29.80 "Hg6 mi
Weather by CustomWeather, © 2014

See weather overviewHow to use our weather pages